Theta_e
304 305 306 306 306 305 305 305 304 303 303 303 304 305 305 306 306 304 302 303 304 304 305 305 304 305 304 302 304 305 306 306 307 306 306 306 306 306 306 305 304 304 303
305 306 306 306 306 306 306 305 304 303 302 302 303 303 304 305 306 305 304 302 302 303 303 303 303 303 305 305 304 305 305 305 305 305 304 305 305 305 305 305 304 303 303
305 306 306 306 306 306 305 305 304 303 302 301 301 302 302 304 305 306 305 304 303 303 303 303 303 303 304 303 304 305 304 303 303 303 303 303 303 303 302 302 302 302 302
305 306 306 307 307 306 306 306 305 304 303 303 299 301 302 305 305 306 305 305 305 305 305 304 303 303 304 304 303 304 304 304 303 303 302 302 302 302 301 301 301 302 301
305 306 306 306 306 304 304 305 306 307 305 303 299 300 301 302 302 304 305 304 304 304 303 302 302 300 299 299 302 303 303 303 302 303 302 302 302 302 301 301 301 301 301
305 306 306 306 305 304 302 303 305 307 307 303 299 299 301 300 299 299 299 302 302 302 302 302 303 301 299 298 298 299 299 302 302 303 302 302 302 302 301 300 300 301 302
305 306 306 305 304 302 302 304 305 307 307 303 300 299 299 299 298 298 299 301 301 302 302 301 301 300 300 299 299 300 300 300 299 300 302 302 302 301 300 300 299 300 300
305 305 305 303 299 299 302 302 305 306 307 304 302 298 300 299 298 299 299 301 301 301 300 300 300 300 298 297 299 299 300 301 301 301 301 302 300 300 299 298 298 299 299
305 305 305 303 298 299 300 299 303 305 305 303 299 298 299 300 298 298 299 300 301 300 300 299 297 297 295 295 297 299 300 301 300 299 299 298 298 297 296 297 298 299 298
305 305 304 302 298 297 297 297 298 300 300 299 298 298 298 298 298 298 298 300 300 299 298 298 297 295 295 294 295 297 297 297 297 297 297 297 298 298 296 297 297 297 297
304 305 305 301 300 298 298 298 298 298 299 299 300 299 299 298 299 299 298 300 299 299 298 298 297 295 294 294 294 296 294 294 295 296 297 298 298 297 296 296 296 296 296
305 306 306 304 301 300 301 301 300 298 300 301 301 301 301 300 299 298 299 298 298 299 299 298 297 295 295 295 295 294 293 294 295 297 297 296 296 296 296 295 296 296 296
306 306 305 303 305 303 303 304 303 303 302 301 300 300 301 301 301 300 299 299 298 298 298 297 297 296 296 297 295 295 294 295 295 296 296 294 295 295 295 295 295 295 296
306 306 305 304 303 303 304 303 303 304 304 304 303 302 301 301 301 301 300 300 300 299 299 299 298 298 298 297 297 296 295 294 294 295 294 293 293 294 295 295 295 295 296
304 304 304 303 304 304 304 302 303 303 303 304 304 303 302 302 301 299 299 299 299 299 297 299 299 299 298 298 297 296 295 295 295 295 292 292 293 294 294 294 295 295 296
305 303 303 303 303 304 303 304 303 302 302 302 302 302 301 301 300 300 300 300 299 298 298 299 299 299 298 298 297 296 295 295 293 292 291 291 292 293 293 294 294 295 296
306 306 305 305 305 305 304 305 304 304 303 303 301 302 301 301 300 300 300 299 299 298 300 300 299 299 298 297 297 295 295 293 291 291 291 291 292 293 293 293 294 295 296
307 305 306 306 306 304 304 304 304 304 304 304 304 302 301 301 299 300 300 301 302 301 301 299 299 298 297 297 296 294 294 292 291 291 291 291 292 292 293 293 294 295 296
306 306 306 306 304 303 303 304 304 304 304 303 303 304 302 301 300 299 302 302 301 301 300 299 298 298 297 297 295 294 293 292 291 291 291 291 292 292 294 294 295 295 295
306 305 305 306 304 303 304 304 304 304 304 304 304 304 302 302 303 302 303 303 301 300 300 299 298 297 297 296 294 294 293 292 292 292 292 292 294 294 294 294 294 295 296
308 308 305 305 304 303 304 304 304 304 304 304 304 302 299 300 302 302 302 301 300 297 299 297 297 297 296 295 293 293 292 293 293 293 293 294 294 294 294 295 295 295 295
307 307 306 304 304 304 303 304 304 304 304 303 303 302 301 302 301 301 301 301 298 297 297 295 296 295 295 294 293 293 292 293 293 295 295 295 295 295 296 295 296 296 296
307 306 303 304 303 303 305 304 304 304 304 304 304 303 303 303 302 301 300 298 298 297 296 296 295 295 294 293 293 292 292 294 295 296 295 296 296 296 297 297 297 297 298
301 302 304 304 304 304 304 304 304 303 303 303 303 303 303 303 302 301 299 298 296 296 295 294 294 294 293 293 293 295 296 296 296 297 297 298 298 298 298 299 299 299 299
301 303 304 304 303 303 303 301 300 299 299 299 299 299 300 297 297 299 300 297 295 296 295 295 294 294 293 292 293 296 297 298 298 298 299 299 299 300 300 300 301 302 303
303 304 303 302 301 300 299 298 297 297 296 295 295 295 296 295 296 297 297 297 295 295 295 294 294 293 292 292 295 296 298 299 299 300 300 300 301 301 301 302 303 302 301
Wind_Speed
10 9 10 10 9 10 12 13 13 13 13 13 12 11 10 11 12 13 13 13 13 12 12 13 14 14 12 11 10 9 9 9 9 12 11 13 14 15 14 14 13 13 15
7 7 9 9 9 9 10 11 12 12 13 13 12 11 9 8 8 10 12 12 12 13 13 13 13 14 14 12 10 9 8 8 10 13 14 14 14 13 14 15 14 15 16
6 6 7 8 8 9 9 10 10 10 12 14 14 13 12 11 7 8 9 10 11 10 11 11 12 12 13 13 11 10 9 8 8 9 12 11 12 12 15 14 15 16 15
5 5 6 7 7 7 6 6 6 7 10 13 14 12 13 13 11 9 9 11 13 14 13 13 13 13 13 14 13 12 11 12 10 11 12 13 12 13 15 18 18 17 18
3 3 5 7 7 7 8 6 5 5 8 11 15 12 14 14 16 13 12 13 14 16 17 16 14 15 15 14 14 16 15 16 16 15 16 15 16 17 17 19 20 19 17
2 3 5 6 7 8 11 10 6 4 6 9 16 13 12 11 15 15 16 14 14 14 16 14 14 14 18 19 20 19 17 18 19 18 17 17 18 19 18 21 21 20 9
1 3 5 7 7 8 10 13 9 5 4 7 12 13 11 12 15 14 15 13 13 13 13 15 16 16 18 20 21 22 21 19 15 16 17 17 17 18 19 21 21 22 21
1 3 5 7 8 6 8 10 10 8 5 6 9 9 10 12 16 17 16 13 11 12 13 14 16 18 21 25 23 23 20 14 10 9 11 14 15 14 15 21 23 21 18
1 3 5 7 8 7 8 8 9 8 7 8 8 7 10 11 14 14 14 13 15 14 13 14 18 20 23 25 22 21 19 14 14 17 18 17 16 15 19 23 20 16 15
1 2 5 6 8 9 11 12 10 9 7 7 6 6 8 11 12 13 14 12 15 15 16 18 19 23 24 24 20 19 19 19 22 22 21 19 17 17 16 13 13 10 12
1 2 3 4 6 8 9 10 10 8 8 7 4 6 8 10 11 13 12 11 12 14 16 18 18 22 24 24 21 18 20 22 21 19 19 19 19 16 13 14 15 15 12
1 1 1 2 3 3 5 6 7 6 5 6 6 7 7 8 11 12 12 11 12 10 13 16 17 22 25 23 23 24 22 18 18 18 19 19 17 16 14 19 16 15 12
2 2 2 3 3 6 7 7 8 7 6 7 8 10 11 11 11 13 14 12 12 10 12 15 19 21 24 24 27 25 22 19 18 19 19 17 17 17 18 18 12 12 12
3 2 1 2 3 5 6 7 8 8 9 9 9 10 11 12 9 10 13 13 13 13 14 17 19 21 22 24 26 25 22 20 19 18 16 18 15 18 17 14 12 13 12
1 1 2 3 5 6 7 8 9 10 9 11 11 10 11 14 12 16 15 15 13 12 16 16 19 21 25 28 29 27 24 23 21 22 19 19 19 17 17 11 10 11 8
1 0 2 3 4 6 9 12 12 7 10 11 13 15 15 18 17 15 14 15 14 13 13 15 17 21 24 27 29 29 26 25 23 23 20 19 18 16 16 14 12 10 9
1 1 2 4 5 7 8 8 11 11 15 13 11 14 16 19 15 13 13 15 15 12 15 16 18 20 23 27 28 27 26 26 23 20 21 19 17 16 15 14 13 11 9
3 3 3 5 6 8 9 10 9 9 12 15 15 18 17 17 14 11 9 13 15 11 17 15 17 20 22 26 27 26 25 26 25 24 20 18 15 15 14 13 12 10 10
5 4 4 5 7 10 10 8 8 10 12 14 15 15 11 12 11 9 9 14 11 13 16 15 15 20 22 25 26 24 27 26 24 22 21 19 16 15 14 11 10 9 8
7 7 6 6 9 10 8 7 8 10 13 13 14 14 12 12 7 5 12 14 13 13 16 13 14 18 23 24 24 24 28 26 24 22 21 19 17 16 12 12 10 9 9
6 6 6 7 9 9 7 7 9 11 12 13 13 12 13 7 7 10 13 12 10 10 11 12 15 19 21 23 23 24 30 27 25 23 22 18 16 13 13 13 10 10 10
7 6 5 7 8 7 7 7 9 10 10 11 12 11 14 10 10 10 10 11 9 9 10 11 15 18 21 23 22 23 31 28 25 24 23 17 16 14 14 12 10 11 12
8 7 6 6 5 5 5 7 9 10 10 10 11 11 12 12 13 12 12 10 10 10 11 13 16 19 22 21 21 25 27 25 24 20 21 19 16 13 13 13 13 9 7
6 5 4 2 4 5 7 8 9 10 10 10 11 12 12 12 12 12 10 9 9 10 12 13 17 21 23 22 24 31 28 24 18 17 17 13 14 15 12 10 8 7 7
4 2 2 4 5 6 7 8 9 9 10 10 11 11 11 12 12 11 10 9 10 12 13 16 19 22 22 24 30 31 26 19 16 15 14 14 14 11 10 9 10 10 9
3 5 6 6 7 7 8 8 8 9 9 10 10 10 10 11 11 10 11 11 11 13 15 17 21 22 22 27 32 29 23 18 15 17 14 12 11 13 11 9 12 12 13
Wind_Direction
42 43 46 40 47 47 36 32 29 29 31 35 40 46 47 43 38 37 37 38 41 38 32 28 23 15 7 1 356 354 351 349 328 328 319 322 324 325 321 326 327 324 321
46 42 46 53 55 41 30 28 28 32 32 30 30 30 19 12 23 36 41 40 38 33 26 20 15 12 12 8 355 348 340 330 320 322 329 322 322 325 325 323 323 320 319
45 58 56 46 35 33 38 34 31 34 34 29 25 21 17 15 11 22 22 19 14 8 2 357 351 350 354 353 353 348 344 337 331 322 324 327 326 333 332 327 326 321 316
69 64 44 27 20 10 23 25 23 27 27 23 19 21 20 21 22 14 5 359 355 349 345 342 338 336 331 327 329 327 318 317 320 318 323 331 331 338 327 331 328 325 324
99 61 26 12 13 10 7 347 340 358 10 17 20 25 25 28 23 16 359 350 346 345 342 343 339 341 336 329 309 305 304 304 309 312 315 320 326 332 332 330 323 324 323
127 31 15 11 11 13 15 9 356 350 6 19 21 20 17 19 12 4 355 346 341 336 334 338 341 344 343 343 343 334 306 287 292 298 305 316 314 320 327 326 320 323 318
130 14 10 2 360 1 10 16 14 9 14 24 19 18 22 14 7 357 348 344 346 349 351 351 352 349 353 345 337 335 327 319 292 282 291 304 311 322 319 316 317 312 310
88 13 16 8 354 2 11 13 19 25 28 14 8 11 10 4 5 9 15 7 7 9 9 6 358 353 350 351 340 333 331 330 331 315 300 305 309 309 311 310 306 298 299
79 20 16 11 18 30 20 21 27 26 20 5 359 9 3 0 7 4 14 9 6 6 6 4 5 356 351 348 343 338 336 336 334 330 324 314 302 308 320 314 305 306 306
77 14 22 38 46 49 43 37 29 19 4 359 359 357 358 358 360 1 7 1 3 0 359 357 354 356 354 353 347 337 333 332 325 319 314 309 302 305 320 313 306 293 301
239 2 37 47 39 37 31 27 28 26 26 17 350 331 338 345 353 359 358 0 358 354 356 356 353 354 353 352 351 338 325 319 321 322 322 322 319 316 315 316 310 304 289
260 318 344 344 338 328 342 339 337 352 356 345 335 326 315 324 339 349 348 349 351 340 347 350 348 352 354 353 350 342 337 332 327 327 330 326 321 318 308 324 320 310 287
294 304 317 309 290 302 307 301 301 300 303 308 314 320 320 323 332 337 346 341 339 334 333 338 344 348 351 350 345 345 343 337 331 331 332 323 320 319 325 320 318 315 309
287 296 338 7 2 340 321 303 294 287 285 284 291 304 312 316 319 329 333 334 332 336 329 331 338 345 349 349 349 347 343 338 328 325 316 317 318 324 328 325 324 327 318
253 302 342 337 340 335 328 322 302 291 289 281 284 286 295 304 319 326 322 318 315 316 322 330 340 346 347 349 349 347 344 341 336 331 321 318 322 325 331 327 322 325 314
252 37 348 327 326 326 329 331 332 318 322 316 295 280 280 291 313 325 322 316 312 313 323 336 339 345 346 346 345 344 343 342 334 328 325 325 323 326 331 332 334 328 319
236 283 309 322 323 329 328 316 322 324 323 322 318 305 286 284 296 314 321 322 318 317 324 340 341 342 343 344 344 344 343 337 336 335 334 333 332 334 336 337 338 332 328
261 298 292 303 317 320 316 307 294 305 308 314 314 318 314 292 307 314 321 346 319 330 333 333 343 343 342 343 343 344 340 337 340 343 340 343 340 338 339 345 343 337 345
250 265 287 304 309 315 313 308 299 299 302 307 315 323 320 323 285 293 340 338 337 324 340 337 341 345 344 343 344 345 341 339 343 344 345 348 352 343 340 344 342 348 349
245 261 289 303 314 317 313 309 317 319 321 319 321 329 330 329 328 330 338 345 343 338 333 340 345 346 345 346 346 346 342 343 343 342 346 353 356 350 348 355 356 353 350
240 263 282 301 311 318 318 317 324 328 329 330 336 345 350 349 355 353 344 355 353 352 358 354 347 347 348 347 346 345 346 345 349 354 0 357 358 358 358 349 348 7 3
261 273 283 306 316 324 330 335 342 347 353 355 357 4 18 15 15 13 11 9 24 33 13 1 352 352 349 348 346 340 340 344 346 344 350 349 1 358 1 358 348 339 339
271 272 289 319 334 349 6 17 21 17 9 8 9 13 18 19 19 28 31 34 39 21 14 359 357 355 352 351 348 338 340 347 346 345 346 355 2 351 349 348 355 14 13
280 292 315 12 44 37 31 25 21 22 18 15 17 19 21 20 20 21 30 40 34 25 8 2 0 356 353 354 348 353 351 348 354 354 356 7 355 358 10 34 32 16 352
277 289 88 72 53 42 31 31 29 29 28 25 22 21 22 25 24 22 33 43 29 15 9 2 0 356 356 354 352 357 1 10 13 19 23 13 17 40 38 20 14 19 16
126 113 94 74 56 45 39 36 34 29 25 21 18 19 22 24 27 37 40 27 18 11 6 1 359 359 360 356 359 2 7 15 23 15 30 44 43 32 42 22 22 34 38